DELTA 1 DEB, 7080

Orbit data source: Space-Track

DELTA 1 DEB, 7080 is space debris in SSO originally from a launch on Tue, 06 Nov 1973 UTC launched from the Air Force Western Test Range (AFWTR). Debris objects in space refer to the collection of defunct objects orbiting the Earth. Examples of debris include non-operational satellites, rocket bodies, and fragments generated from explosions, collisions, or faulty payload assembly.

Loading next visibility...
Identifier
7080, 1973-086BY
Orbit
SSO
Country
Flag of USUS
Related business
Manufacturer
Unknown
Mission
Spacecraft
Bus & Motor
Unknown
Mass
Unknown
Launch date (UTC)
1973-11-06 (53 years ago)
Launch vehicle
Unknown
Launch site
Air Force Western Test Range (AFWTR)
Object type
Payload
Rocket body
Debris
Shape & HBR
Unknown shape, 0.1 m
Radar Cross Section
Medium (>0.1 m² and <1 m²)

Expand to show TLE details & history
Last TLE update: 3 days ago

TLE from 3 days ago
0 DELTA 1 DEB
1 07080U 73086BY  26170.95603875 -.00000219  00000-0 -85000-3 0  9998
2 07080 101.9352 168.6141 0044341 182.3685 204.4195 12.70486022410466
Epoch: 2026-06-19T22:56Z
TLE epoch observation values (Epoch: 2026-06-19T22:56:41.747Z)
Latitude
25.99409°
Longitude
-89.62397°
Altitude
1,414.188 km
Speed
7.141 km/s
True Right ascension
10h 50m 54s
True Declination
25° 52' 13"
Sunlit
Object was in daylight at epoch
Visualization orbit readout
Latitude
Unknown
Longitude
Unknown
Altitude
Unknown
Speed
Unknown
Apparent Right ascension
Unknown
Apparent Declination
Unknown
Sunlit
N/A
Visualization observer readout
Local Sidereal Time
07:08:04
Azimuth
Unknown
Elevation
Unknown
Doppler factor
Unknown
Orbital elements
Apogee altitude
1,411.881 km
Perigee altitude
1,343.103 km
Semi-major axis
7,755.629 km
Eccentricity
0.00443
Inclination
101.9352°
RAAN
168.6141°
Arg. of periapsis
182.3685°
True anomaly
204.2105°
Mean anomaly
204.4195°
Eccentric anomaly
204.31489°
Mean motion
3.17773 °/min
Orbital period
113.29 mins
BSTAR
-0.00085
Loading maneuver chart data...
Computing Atmospheric mass density...
Loading historical data...
Loading historical data...
Loading historical data...
Loading historical data...
Loading historical data...
Loading historical data...
Loading historical data...

Documentation

Showing up to 5 results
|